FW1396 Weather Reports


Display with metric or nautical units.
time (UTC)temp
F
wind
direction
speed
MPH
gust
MPH
rain 1hr
in
rain 24hr
in
rain mn
in
humidity
%
barometer
mb
20260508142500 62 271 3.0 6.0 0.00 0.00 0.00 80 997.8
20260508141458 59 182 1.0 4.0 0.00 0.00 0.00 82 997.9
20260508140958 59 182 2.0 4.0 0.00 0.00 0.00 84 998.1
20260508140500 58 182 1.0 3.0 0.00 0.00 0.00 85 998.2
20260508135957 57 182 0.0 2.0 0.00 0.00 0.00 87 998.4
20260508135457 57 182 1.0 2.0 0.00 0.00 0.00 90 998.5
20260508134958 56 182 0.0 0.0 0.00 0.00 0.00 89 998.4
20260508134457 55 182 0.0 0.0 0.00 0.00 0.00 90 998.4
20260508134229 54 182 0.0 2.0 0.00 0.00 0.00 90 998.4
20260508133458 53 182 1.0 2.0 0.00 0.00 0.00 91 998.4
20260508132958 0 179 0.0 0.0 0.00 0.00 0.00 998.5
20260508132457 0 0.0 0.0 0.00 0.00 0.00 998.6
20260508132228 0 0.0 0.0 0.00 0.00 0.00 998.6
20260508131459 0 0.0 0.0 0.00 0.00 0.00 998.6
20260508130954 0 0.0 0.0 0.00 0.00 0.00 998.7
20260508130452 48 179 0.0 1.0 0.00 0.00 0.00 96 998.6
20260508125950 48 179 0.0 1.0 0.00 0.00 0.00 96 998.6
20260508125453 47 179 0.0 2.0 0.00 0.00 0.00 95 998.6
20260508124950 47 76 0.0 2.0 0.00 0.00 0.00 95 998.6
20260508124452 47 76 1.0 2.0 0.00 0.00 0.00 95 998.6
20260508123949 46 190 0.0 0.0 0.00 0.00 0.00 96 998.6
20260508123450 45 265 0.0 0.0 0.00 0.00 0.00 95 998.6
20260508122950 45 265 0.0 0.0 0.00 0.00 0.00 95 998.6
20260508122448 0 0.0 0.0 0.00 0.00 0.00 998.7
20260508121949 0 0.0 0.0 0.00 0.00 0.00 998.7
20260508121447 0 0.0 0.0 0.00 0.00 0.00 998.8
20260508120945 0 0.0 0.0 0.00 0.00 0.00 998.7
20260508120444 0 0.0 0.0 0.00 0.00 0.00 998.8
20260508120215 43 265 0.0 1.0 0.00 0.00 0.00 94 998.8
20260508115442 43 265 0.0 2.0 0.00 0.00 0.00 94 998.8
20260508114942 43 265 1.0 2.0 0.00 0.00 0.00 94 998.7
20260508114713 42 265 0.0 0.0 0.00 0.00 0.00 93 998.7
20260508113943 42 265 0.0 0.0 0.00 0.00 0.00 92 998.6
20260508113442 0 0.0 0.0 0.00 0.00 0.00 998.6
20260508112942 0 0.0 0.0 0.00 0.00 0.00 998.5
20260508112440 0 0.0 0.0 0.00 0.00 0.00 998.4
20260508111939 0 0.0 0.0 0.00 0.00 0.00 998.4
20260508111439 0 0.0 0.0 0.00 0.00 0.00 998.2
20260508110937 0 0.0 0.0 0.00 0.00 0.00 998.2
20260508110436 0 0.0 0.0 0.00 0.00 0.00 998.0
20260508110205 0 0.0 0.0 0.00 0.00 0.00 998.1
20260508105434 0 0.0 0.0 0.00 0.00 0.00 998.1
20260508104932 0 0.0 0.0 0.00 0.00 0.00 998.0
20260508104702 42 265 0.0 0.0 0.00 0.00 0.00 92 998.0
20260508103930 42 265 0.0 0.0 0.00 0.00 0.00 92 998.0
20260508103429 42 265 0.0 0.0 0.00 0.00 0.00 92 998.0
20260508102930 42 265 0.0 0.0 0.00 0.00 0.00 92 998.0
20260508102431 42 265 0.0 0.0 0.00 0.00 0.00 92 998.0
20260508101929 42 265 0.0 0.0 0.00 0.00 0.00 92 998.0
20260508101430 43 265 0.0 0.0 0.00 0.00 0.00 92 998.0
20260508100928 43 265 0.0 0.0 0.00 0.00 0.00 92 998.0
20260508100429 43 265 0.0 0.0 0.00 0.00 0.00 92 998.0
20260508095929 43 265 0.0 0.0 0.00 0.00 0.00 92 998.1
20260508095428 43 265 0.0 0.0 0.00 0.00 0.00 92 998.0
20260508094928 43 265 0.0 0.0 0.00 0.00 0.00 92 998.1
20260508094429 43 265 0.0 0.0 0.00 0.00 0.00 92 998.1
20260508093927 0 0.0 0.0 0.00 0.00 0.00 998.1
20260508093426 0 0.0 0.0 0.00 0.00 0.00 998.1
20260508092925 43 265 0.0 0.0 0.00 0.00 0.00 92 998.2
20260508092423 43 265 0.0 0.0 0.00 0.00 0.00 92 998.2
20260508091924 43 265 0.0 0.0 0.00 0.00 0.00 92 998.2
20260508091656 43 265 0.0 0.0 0.00 0.00 0.00 92 998.1
20260508091153 43 265 0.0 0.0 0.00 0.00 0.00 92 998.0
20260508090424 43 265 0.0 0.0 0.00 0.00 0.00 92 997.9
20260508085922 43 265 0.0 0.0 0.00 0.00 0.00 92 997.8
20260508085424 43 265 0.0 0.0 0.00 0.00 0.00 92 997.9
20260508084922 44 265 0.0 1.0 0.00 0.00 0.00 92 997.7
20260508084653 44 265 0.0 1.0 0.00 0.00 0.00 92 997.7
20260508084156 0 0.0 0.0 0.00 0.00 0.00 997.7
20260508083423 0 0.0 0.0 0.00 0.00 0.00 997.9
20260508082921 0 0.0 0.0 0.00 0.00 0.00 997.8
20260508082419 44 265 0.0 0.0 0.00 0.00 0.00 92 997.8
20260508081918 44 265 0.0 1.0 0.00 0.00 0.00 92 997.9
20260508081417 44 265 0.0 1.0 0.00 0.00 0.00 92 997.9
20260508080918 44 265 0.0 1.0 0.00 0.00 0.00 92 998.0
20260508080648 44 265 0.0 1.0 0.00 0.00 0.00 92 998.0
20260508075918 44 265 0.0 1.0 0.00 0.00 0.00 92 998.0
20260508075649 44 265 0.0 2.0 0.00 0.00 0.00 91 998.2
20260508075150 44 265 0.0 2.0 0.00 0.00 0.00 91 998.1
20260508074417 44 265 0.0 2.0 0.00 0.00 0.00 91 998.1
20260508073914 44 265 0.0 0.0 0.00 0.00 0.00 90 998.2
20260508073417 0 0.0 0.0 0.00 0.00 0.00 998.4
20260508072915 0 0.0 0.0 0.00 0.00 0.00 998.5
20260508072414 0 0.0 0.0 0.00 0.00 0.00 998.5
20260508071913 44 265 0.0 0.0 0.00 0.00 0.00 90 998.7
20260508071411 44 265 0.0 0.0 0.00 0.00 0.00 90 998.7
20260508070911 44 265 0.0 0.0 0.00 0.00 0.00 90 998.7
20260508070411 44 265 0.0 0.0 0.00 0.00 0.00 90 998.8
20260508065911 45 265 0.0 0.0 0.00 0.00 0.00 90 998.9
20260508065411 45 265 0.0 0.0 0.00 0.00 0.00 90 998.9
20260508064912 45 265 0.0 0.0 0.00 0.00 0.00 90 999.0
20260508064411 45 265 0.0 0.0 0.00 0.00 0.00 90 999.1
20260508063910 45 265 0.0 0.0 0.00 0.00 0.00 90 999.1
20260508063411 45 265 0.0 0.0 0.00 0.00 0.00 90 999.1
20260508062909 45 265 0.0 0.0 0.00 0.00 0.00 90 999.0
20260508062409 45 265 0.0 0.0 0.00 0.00 0.00 90 999.2
20260508061911 45 265 0.0 0.0 0.00 0.00 0.00 89 999.2
20260508061641 45 265 0.0 0.0 0.00 0.00 0.00 89 999.2
20260508060909 45 265 0.0 0.0 0.00 0.00 0.00 89 999.2
20260508060409 45 265 0.0 0.0 0.00 0.00 0.00 89 999.2
20260508055908 46 265 0.0 0.0 0.00 0.00 0.00 89 999.2
20260508055410 46 265 0.0 0.0 0.00 0.00 0.00 89 999.3
20260508054910 46 265 0.0 0.0 0.00 0.00 0.00 89 999.3
20260508054411 46 265 0.0 0.0 0.00 0.00 0.00 89 999.3
20260508053908 46 265 0.0 0.0 0.00 0.00 0.00 88 999.3
20260508053410 46 265 0.0 0.0 0.00 0.00 0.00 88 999.4
20260508053141 46 265 0.0 0.0 0.00 0.00 0.00 89 999.4
20260508052408 46 265 0.0 0.0 0.00 0.00 0.00 88 999.3
20260508052138 46 265 0.0 0.0 0.00 0.00 0.00 88 999.4
20260508051408 47 265 0.0 0.0 0.00 0.00 0.00 88 999.4
20260508050908 47 265 0.0 0.0 0.00 0.00 0.00 88 999.4
20260508050407 47 265 0.0 0.0 0.00 0.00 0.00 88 999.4
20260508045908 47 265 0.0 0.0 0.00 0.00 0.00 88 999.4
20260508045409 47 265 0.0 0.0 0.00 0.00 0.00 87 999.5
20260508044908 47 265 0.0 0.0 0.00 0.00 0.00 87 999.4
20260508044409 47 265 0.0 0.0 0.00 0.00 0.00 87 999.3
20260508043907 47 265 0.0 0.0 0.00 0.00 0.00 87 999.3
20260508043408 47 265 0.0 0.0 0.00 0.00 0.00 87 999.3
20260508042908 48 265 0.0 0.0 0.00 0.00 0.00 87 999.3
20260508042410 48 265 0.0 0.0 0.00 0.00 0.00 86 999.3
20260508041907 48 265 0.0 0.0 0.00 0.00 0.00 86 999.3
20260508041407 48 265 0.0 0.0 0.00 0.00 0.00 86 999.2
20260508040906 48 265 0.0 0.0 0.00 0.00 0.00 86 999.2
20260508040406 49 265 0.0 0.0 0.00 0.00 0.00 86 999.1
20260508035907 49 265 0.0 0.0 0.00 0.00 0.00 86 999.1
20260508035406 49 265 0.0 0.0 0.00 0.00 0.00 86 999.3
20260508034907 49 265 0.0 0.0 0.00 0.00 0.00 85 999.2
20260508034406 49 265 0.0 2.0 0.00 0.00 0.00 85 999.3
20260508033907 49 265 0.0 2.0 0.00 0.00 0.00 85 999.3
20260508033406 50 265 0.0 3.0 0.00 0.00 0.00 85 999.3
20260508032905 50 265 1.0 3.0 0.00 0.00 0.00 85 999.3
20260508032405 50 265 2.0 2.0 0.00 0.00 0.00 84 999.3
20260508031905 51 265 1.0 2.0 0.00 0.00 0.00 84 999.3
20260508031407 51 265 2.0 2.0 0.00 0.00 0.00 83 999.3
20260508030906 51 265 1.0 2.0 0.00 0.00 0.00 82 999.2
20260508030405 51 265 1.0 2.0 0.00 0.00 0.00 81 999.2
20260508025904 51 265 0.0 0.0 0.00 0.00 0.00 80 999.0
20260508025406 52 265 0.0 0.0 0.00 0.00 0.00 80 999.1
20260508024906 52 265 0.0 0.0 0.00 0.00 0.00 80 998.9
20260508024404 52 265 0.0 0.0 0.00 0.00 0.00 79 998.9
20260508023904 52 265 0.0 0.0 0.00 0.00 0.00 79 998.7
20260508023404 53 265 0.0 0.0 0.00 0.00 0.00 79 998.7
20260508022905 53 265 0.0 2.0 0.00 0.00 0.00 79 998.7
20260508022405 53 265 0.0 2.0 0.00 0.00 0.00 78 998.7
20260508021905 54 265 1.0 2.0 0.00 0.00 0.00 78 998.5
20260508021406 54 265 0.0 0.0 0.00 0.00 0.00 77 998.3
20260508020904 55 265 1.0 1.0 0.00 0.00 0.00 76 998.2
20260508020404 55 265 1.0 2.0 0.00 0.00 0.00 76 998.3
20260508020136 55 265 1.0 2.0 0.00 0.00 0.00 76 998.3
20260508015402 56 265 2.0 2.0 0.00 0.00 0.00 75 998.2
20260508014902 56 265 2.0 2.0 0.00 0.00 0.00 75 998.2
20260508014403 56 265 1.0 2.0 0.00 0.00 0.00 74 998.1
20260508013902 56 265 1.0 2.0 0.00 0.00 0.00 74 998.1
20260508013403 0 265 1.0 1.0 0.00 0.00 0.00 998.1
20260508012402 0 0.0 0.0 0.00 0.00 0.00 998.0
20260508011900 59 265 1.0 2.0 0.00 0.00 0.00 69 998.0
20260508011359 59 265 1.0 3.0 0.00 0.00 0.00 69 998.0
20260508010900 60 265 2.0 3.0 0.00 0.00 0.00 67 997.9
20260508010357 61 265 2.0 2.0 0.00 0.00 0.00 65 998.0
20260508010130 61 265 1.0 2.0 0.00 0.00 0.00 63 997.9
20260508005358 62 265 2.0 2.0 0.00 0.00 0.00 60 997.8
20260508004857 64 265 2.0 2.0 0.00 0.00 0.00 58 997.8
20260508004630 65 265 2.0 2.0 0.00 0.00 0.00 55 997.7
20260508003859 66 265 0.0 1.0 0.00 0.00 0.00 53 997.6
20260508003627 66 265 0.0 4.0 0.00 0.00 0.00 50 997.6
20260508002857 66 265 2.0 4.0 0.00 0.00 0.00 48 997.6
20260508002358 66 265 2.0 4.0 0.00 0.00 0.00 46 997.5
20260508001858 66 265 3.0 4.0 0.00 0.00 0.00 46 997.5
20260508001627 67 265 0.0 2.0 0.00 0.00 0.00 46 997.6
20260508000856 67 265 0.0 4.0 0.00 0.00 0.00 46 997.6
20260508000354 67 265 2.0 4.0 0.00 0.00 0.00 45 997.6
20260508000127 68 265 0.0 2.0 0.00 0.00 0.00 46 997.6
20260507235355 68 265 0.0 2.0 0.00 0.00 0.00 46 997.6
20260507234855 68 265 1.0 4.0 0.00 0.00 0.00 46 997.5
20260507234356 68 265 3.0 4.0 0.00 0.00 0.00 44 997.5
20260507233856 68 265 1.0 2.0 0.00 0.00 0.00 42 997.6
20260507233625 68 265 1.0 2.0 0.00 0.00 0.00 42 997.6
20260507232855 68 265 1.0 4.0 0.00 0.00 0.00 41 997.7
20260507232354 68 265 2.0 4.0 0.00 0.00 0.00 41 997.6
20260507231855 68 265 1.0 4.0 0.00 0.00 0.00 40 997.6
20260507231354 68 259 2.0 4.0 0.00 0.00 0.00 41 997.6
20260507230854 68 271 2.0 5.0 0.00 0.00 0.00 40 997.6
20260507230354 68 271 1.0 5.0 0.00 0.00 0.00 40 997.6
20260507225855 69 266 2.0 4.0 0.00 0.00 0.00 40 997.6
20260507225354 69 235 2.0 3.0 0.00 0.00 0.00 40 997.6
20260507224854 69 272 1.0 6.0 0.00 0.00 0.00 40 997.6
20260507224354 69 272 4.0 7.0 0.00 0.00 0.00 40 997.7
20260507224125 69 262 5.0 7.0 0.00 0.00 0.00 40 997.6
20260507223625 69 254 1.0 2.0 0.00 0.00 0.00 43 997.7
20260507222852 69 254 2.0 2.0 0.00 0.00 0.00 40 997.7
20260507222354 68 254 1.0 6.0 0.00 0.00 0.00 40 997.8
20260507222124 68 252 3.0 11.0 0.00 0.00 0.00 40 997.9
20260507221353 68 255 5.0 11.0 0.00 0.00 0.00 39 997.9
20260507220853 68 243 6.0 9.0 0.00 0.00 0.00 39 997.9
20260507220352 68 254 2.0 9.0 0.00 0.00 0.00 40 998.0
20260507215854 68 278 5.0 9.0 0.00 0.00 0.00 42 998.0
20260507215352 68 247 4.0 9.0 0.00 0.00 0.00 41 998.0
20260507214853 68 255 2.0 11.0 0.00 0.00 0.00 40 998.0
20260507214353 68 251 5.0 11.0 0.00 0.00 0.00 40 998.1
20260507213852 68 243 3.0 6.0 0.00 0.00 0.00 40 998.0
20260507213353 68 161 2.0 2.0 0.00 0.00 0.00 40 998.0
20260507212851 0 0.0 0.0 0.00 0.00 0.00 998.1
20260507212351 0 0.0 0.0 0.00 0.00 0.00 998.1
20260507212120 0 0.0 0.0 0.00 0.00 0.00 998.1
20260507211348 0 0.0 0.0 0.00 0.00 0.00 998.1
20260507210846 68 265 6.0 6.0 0.00 0.00 0.00 40 998.1
20260507210345 68 265 6.0 9.0 0.00 0.00 0.00 40 998.3
20260507205844 68 252 7.0 9.0 0.00 0.00 0.00 40 998.4
20260507205346 0 0.0 0.0 0.00 0.00 0.00 998.3
20260507204844 68 266 3.0 6.0 0.00 0.00 0.00 41 998.4
20260507204343 68 266 3.0 6.0 0.00 0.00 0.00 41 998.5
20260507203841 0 207 6.0 6.0 0.00 0.00 0.00 998.6
20260507203342 0 238 3.0 6.0 0.00 0.00 0.00 998.6
20260507202842 0 0.0 0.0 0.00 0.00 0.00 998.5
20260507202343 0 0.0 0.0 0.00 0.00 0.00 998.6
20260507201839 0 0.0 0.0 0.00 0.00 0.00 998.6
20260507201339 0 0.0 0.0 0.00 0.00 0.00 998.6
20260507200837 0 0.0 0.0 0.00 0.00 0.00 998.7
20260507200337 0 0.0 0.0 0.00 0.00 0.00 998.8
20260507195835 0 0.0 0.0 0.00 0.00 0.00 998.8
20260507195333 0 0.0 0.0 0.00 0.00 0.00 998.9
20260507194833 0 0.0 0.0 0.00 0.00 0.00 999.0
20260507194331 67 3 2.0 4.0 0.00 0.00 0.00 39 999.1
20260507193830 67 3 2.0 7.0 0.00 0.00 0.00 39 999.2
20260507193600 67 221 6.0 7.0 0.00 0.00 0.00 40 999.3
20260507192829 67 207 2.0 5.0 0.00 0.00 0.00 40 999.4
20260507192329 67 207 2.0 5.0 0.00 0.00 0.00 40 999.4
20260507192102 67 219 3.0 7.0 0.00 0.00 0.00 36 999.5
20260507191329 67 233 5.0 7.0 0.00 0.00 0.00 36 999.6
20260507190828 67 207 4.0 5.0 0.00 0.00 0.00 38 999.6
20260507190603 67 257 3.0 5.0 0.00 0.00 0.00 38 999.7
20260507185828 67 257 3.0 5.0 0.00 0.00 0.00 38 999.7
20260507185601 67 272 1.0 5.0 0.00 0.00 0.00 38 999.8
20260507184826 67 231 2.0 5.0 0.00 0.00 0.00 39 999.8
20260507184326 66 97 1.0 5.0 0.00 0.00 0.00 37 999.9
20260507183827 65 233 3.0 5.0 0.00 0.00 0.00 37 1000.0
20260507183326 65 221 4.0 6.0 0.00 0.00 0.00 35 1000.0
20260507182826 66 103 4.0 6.0 0.00 0.00 0.00 35 1000.0
20260507182325 66 203 4.0 5.0 0.00 0.00 0.00 35 1000.1
20260507181827 66 226 3.0 6.0 0.00 0.00 0.00 37 1000.1
20260507181325 66 116 3.0 6.0 0.00 0.00 0.00 36 1000.1
20260507180824 66 113 3.0 6.0 0.00 0.00 0.00 35 1000.1
20260507180325 66 86 4.0 6.0 0.00 0.00 0.00 38 1000.1
20260507175824 66 186 2.0 6.0 0.00 0.00 0.00 37 1000.2
20260507175555 66 78 4.0 6.0 0.00 0.00 0.00 41 1000.3
20260507174825 66 271 2.0 3.0 0.00 0.00 0.00 38 1000.4
20260507174324 66 271 1.0 9.0 0.00 0.00 0.00 39 1000.5
20260507173824 66 268 2.0 9.0 0.00 0.00 0.00 37 1000.5
20260507173323 65 79 3.0 7.0 0.00 0.00 0.00 39 1000.7
20260507172826 65 186 3.0 7.0 0.00 0.00 0.00 41 1000.7
20260507172324 65 10 2.0 3.0 0.00 0.00 0.00 40 1000.9
20260507171823 65 10 2.0 3.0 0.00 0.00 0.00 40 1001.0
20260507171323 65 120 2.0 2.0 0.00 0.00 0.00 40 1001.1
20260507170822 65 120 2.0 4.0 0.00 0.00 0.00 40 1001.2
20260507170321 65 131 3.0 4.0 0.00 0.00 0.00 39 1001.3
20260507165821 65 278 2.0 4.0 0.00 0.00 0.00 38 1001.4
20260507165321 65 278 2.0 4.0 0.00 0.00 0.00 38 1001.5
20260507165051 65 8 5.0 5.0 0.00 0.00 0.00 44 1001.5
20260507164549 65 8 5.0 5.0 0.00 0.00 0.00 44 1001.5
20260507163819 65 288 1.0 2.0 0.00 0.00 0.00 44 1001.5
20260507163317 64 298 2.0 2.0 0.00 0.00 0.00 44 1001.5
20260507162820 64 313 1.0 3.0 0.00 0.00 0.00 44 1001.5
20260507162317 63 354 1.0 3.0 0.00 0.00 0.00 46 1001.5
20260507161817 63 303 1.0 3.0 0.00 0.00 0.00 45 1001.5
20260507161314 63 0 2.0 2.0 0.00 0.00 0.00 45 1001.4
20260507160817 63 234 1.0 4.0 0.00 0.00 0.00 49 1001.5
20260507160547 62 109 2.0 5.0 0.00 0.00 0.00 49 1001.5
20260507155816 62 114 2.0 5.0 0.00 0.00 0.00 47 1001.6
20260507155318 62 69 2.0 5.0 0.00 0.00 0.00 49 1001.7
20260507154816 61 123 0.0 5.0 0.00 0.00 0.00 51 1001.7
20260507154315 61 230 4.0 5.0 0.00 0.00 0.00 49 1001.8
20260507154045 60 254 2.0 3.0 0.00 0.00 0.00 51 1001.8
20260507153316 59 254 1.0 5.0 0.00 0.00 0.00 53 1001.9
20260507152815 59 254 0.0 5.0 0.00 0.00 0.00 56 1001.9
20260507152547 59 252 2.0 7.0 0.00 0.00 0.00 54 1001.9
20260507151815 59 230 3.0 7.0 0.00 0.00 0.00 66 1001.9
20260507151315 58 286 1.0 5.0 0.00 0.00 0.00 68 1001.9
20260507150815 58 254 4.0 5.0 0.00 0.00 0.00 68 1002.1
20260507150315 57 200 2.0 3.0 0.00 0.00 0.00 70 1002.0
20260507145814 57 207 2.0 3.0 0.00 0.00 0.00 75 1002.1
20260507145314 56 207 2.0 3.0 0.00 0.00 0.00 73 1002.1
20260507144815 55 207 0.0 3.0 0.00 0.00 0.00 77 1002.2
20260507144316 54 207 1.0 4.0 0.00 0.00 0.00 80 1002.2
20260507143812 53 207 0.0 4.0 0.00 0.00 0.00 79 1002.2